KUIPER-00320

导读 | 豆包AI

KUIPER-00320(NORAD编号68601)是亚马逊柯伊伯项目(Project Kuiper)星座中的一颗互联网通信卫星。该项目计划部署3236颗卫星,为全球提供低延迟宽带互联网服务。这颗卫星是2025年9月ULA第五次发射任务中27颗卫星之一,初始部署在465公里高度,随后会升轨至预定工作轨道。目前整个星座已累计部署129颗卫星,项目需在2026年7月FCC要求前完成一半卫星发射,Kuipers项目已获得捷蓝航空合作,计划2027年推进机载互联网应用。

基本信息
目录编号:
68601
目录名称:
KUIPER-00320
国际标识:
2026-072AE
轨道中心:
EARTH
卫星名称:
KUIPER-00320
卫星全名:
KUIPER-00320
卫星状态:
在轨 (已飞行11 天)
发射日期:
2026-04-04 UTC
国别 :
美国 (US)
星等 :
--
轨道信息
数据来源 国际轨道数据 AOE轨道数据
星历时间 2026-04-15T06:00:02+0800
10小时前
查看轨道信息
2026-04-15T05:00:00+0800
11小时前
查看轨道信息
半长轴 6836.403km 6836.283km
偏心率 0.0011214 0.001148
轨道倾角 51.860° 51.858°
近地点辐角 157.568° 157.596°
升交点赤经 123.025° 123.231°
平近点角 245.070° 14.383°
近地点 450.599km 450.297km
远地点 465.933km 465.995km
周期 93.756分钟 93.754分钟
每日圈数 15.358943 15.359348
详细信息
使用方式:
暂无
2D轨道图
3D轨道图
轨道高度分析图
轨道倾角分析图
轨道综合分析图
查看轨道综合分析图